• Join FlightAware (Why Join?)
  • Login
  • US Flag GB Flag 
21:19 EDT


 

Airport Tracker/Info


-or-


 

Live Flight TrackerFlight Track Log ✈ DAL1562 ✈ 13-Apr-2013 ✈ KDTW - KPHL

Flight Track Log - Related Links

Times and Time Zones

All times are in EDT time to prevent confusion due to time zone crossing. See the DAL1562 flight status page for this flight to view local times or setup timezone preferences in your user account.

Time Position Orientation Groundspeed Altitude Reporting Facility
EDT Latitude Longitude Course Direction KTS MPH feet Rate Location/Type
14:15 42.2081 -83.3528 178° South 147 169 1,600  Level Cleveland Center
14:16 42.1786 -83.3511 178° South 212 244 2,800 2,160 Climbing FAA TRACON SMA TRACON (SMA)
14:16 42.1606 -83.3489 175° South 231 266 3,600 3,420 Climbing FAA TRACON SMA TRACON (SMA)
14:17 42.1361 -83.3447 173° South 238 274 5,100 3,120 Climbing FAA TRACON SMA TRACON (SMA)
14:17 42.1222 -83.3408 168° South 236 272 5,700 3,120 Climbing FAA TRACON SMA TRACON (SMA)
14:17 42.0978 -83.3153 142° Southeast 275 316 7,200 3,900 Climbing FAA TRACON SMA TRACON (SMA)
14:18 42.0878 -83.2850 114° Southeast 294 338 8,300 2,820 Climbing FAA TRACON SMA TRACON (SMA)
14:18 42.0808 -83.2417 102° East 326 375 9,100 2,100 Climbing FAA TRACON SMA TRACON (SMA)
14:18 42.0867 -83.2061 78° East 317 365 9,700 1,500 Climbing FAA TRACON SMA TRACON (SMA)
14:19 42.0933 -83.1689 76° East 339 390 10,100 1,800 Climbing FAA TRACON SMA TRACON (SMA)
14:19 42.1019 -83.1192 77° East 366 421 10,900 2,100 Climbing FAA TRACON SMA TRACON (SMA)
14:19 42.1092 -83.0767 77° East 390 449 11,500 1,800 Climbing FAA TRACON SMA TRACON (SMA)
14:20 42.1158 -83.0322 79° East 401 461 12,100 2,820 Climbing FAA TRACON SMA TRACON (SMA)
14:20 42.1256 -82.9753 77° East 413 475 13,400 3,120 Climbing FAA TRACON SMA TRACON (SMA)
14:20 42.1333 -82.9294 77° East 415 478 14,200 2,460 Climbing FAA TRACON SMA TRACON (SMA)
14:21 42.1428 -82.8825 75° East 421 484 15,000 2,280 Climbing FAA TRACON SMA TRACON (SMA)
14:21 42.1517 -82.8344 76° East 429 494 15,700 2,700 Climbing FAA TRACON SMA TRACON (SMA)
14:21 42.1639 -82.7739 75° East 437 503 16,800 2,820 Climbing FAA TRACON SMA TRACON (SMA)
14:22 42.1736 -82.7244 75° East 442 509 17,600 2,520 Climbing FAA TRACON SMA TRACON (SMA)
14:22 42.1833 -82.6747 75° East 444 511 18,500 2,820 Climbing FAA TRACON SMA TRACON (SMA)
14:22 42.1947 -82.6114 76° East 450 518 19,500 2,520 Climbing FAA TRACON SMA TRACON (SMA)
14:23 42.2042 -82.5603 76° East 454 522 20,200 2,040 Climbing FAA TRACON SMA TRACON (SMA)
14:23 42.2139 -82.5083 76° East 463 533 20,900 2,040 Climbing FAA TRACON SMA TRACON (SMA)
14:23 42.2206 -82.4397 83° East 477 549 21,600 2,100 Climbing FAA TRACON SMA TRACON (SMA)
14:24 42.2206 -82.3844 90° East 481 554 22,300 1,800 Climbing FAA TRACON SMA TRACON (SMA)
14:24 42.2158 -82.3283 96° East 495 570 22,800 2,100 Climbing FAA TRACON SMA TRACON (SMA)
14:24 42.2106 -82.2569 96° East 500 575 23,700 1,920 Climbing FAA TRACON SMA TRACON (SMA)
14:25 42.2169 -82.2286 73° East 603 694 24,100 840 Climbing FAA TRACON SMA TRACON (SMA)
14:26 42.1889 -81.9872 99° East 489 563 25,000 420 Climbing Cleveland Center
14:27 42.1114 -81.8483 127° Southeast 461 531 25,000  Level Cleveland Center
14:28 42.0228 -81.7458 139° Southeast 461 531 25,000  Level Cleveland Center
14:29 41.9281 -81.6353 139° Southeast 466 536 25,000  Level Cleveland Center
14:30 41.8311 -81.5222 139° Southeast 461 531 25,000  Level Cleveland Center
14:31 41.7339 -81.4094 139° Southeast 461 531 25,000  Level Cleveland Center
14:32 41.6242 -81.2886 141° Southeast 461 531 25,000  Level Cleveland Center
14:33 41.5289 -81.1767 139° Southeast 461 531 25,000  Level Cleveland Center
14:34 41.4378 -81.0539 135° Southeast 461 531 25,000  Level Cleveland Center
14:35 41.3467 -80.9289 134° Southeast 461 531 25,000  Level Cleveland Center
14:36 41.2594 -80.8014 132° Southeast 466 536 25,000  Level Cleveland Center
14:37 41.1678 -80.6797 135° Southeast 466 536 25,000  Level Cleveland Center
14:38 41.0761 -80.5500 133° Southeast 466 536 25,000  Level Cleveland Center
14:40 40.8944 -80.3031 134° Southeast 466 536 25,000  Level Cleveland Center
14:41 40.8106 -80.1744 131° Southeast 466 536 25,000  Level Cleveland Center
14:42 40.7517 -80.0131 116° Southeast 477 549 25,000  Level Cleveland Center
14:43 40.7008 -79.8656 114° Southeast 477 549 25,000  Level Cleveland Center
14:44 40.6411 -79.7047 116° Southeast 482 555 25,000  Level Cleveland Center
14:45 40.5836 -79.5442 115° Southeast 482 555 25,000  Level Cleveland Center
14:46 40.5361 -79.3728 110° East 482 555 25,000  Level Cleveland Center
14:47 40.5025 -79.1797 103° East 487 560 25,000  Level Cleveland Center
14:48 40.4797 -79.0164 100° East 496 571 25,000  Level Cleveland Center
14:49 40.4500 -78.8397 102° East 501 577 25,000  Level Cleveland Center
14:50 40.4242 -78.6603 101° East 501 577 25,000  Level Cleveland Center
14:51 40.3961 -78.4867 102° East 501 577 25,000  Level Cleveland Center
14:52 40.3697 -78.3131 101° East 496 571 25,000  Level Cleveland Center
14:53 40.3236 -78.0350 102° East 485 558 25,000  Level New York Center
14:54 40.3117 -77.8542 95° East 491 565 25,000 -480 Level New York Center
14:55 40.3058 -77.6711 92° East 496 571 24,100 -960 Descending New York Center
14:56 40.2889 -77.4950 97° East 496 571 23,200 -1,020 Descending New York Center
14:57 40.2697 -77.3164 98° East 496 571 22,100 -900 Descending New York Center
14:58 40.2450 -77.1208 99° East 491 565 21,500 -900 Descending New York Center
14:59 40.2250 -76.9478 99° East 486 559 20,300 -1,620 Descending New York Center
15:00 40.2083 -76.7858 98° East 469 540 18,300 -2,220 Descending New York Center
15:01 40.1911 -76.6267 98° East 447 514 15,900 -4,260 Descending New York Center
15:02 40.1750 -76.4894 99° East 427 491 10,000 -2,280 Descending New York Center
15:03 40.1556 -76.3331 99° East 401 461 11,500 480 Climbing FAA TRACON SMA TRACON (SMA)
15:04 40.1500 -76.2894 99° East 398 458 10,700 -1,980 Descending FAA TRACON SMA TRACON (SMA)
15:04 40.1428 -76.2361 100° East 392 451 10,200 -900 Descending FAA TRACON SMA TRACON (SMA)
15:04 40.1378 -76.1972 100° East 385 443 10,100 -180 Descending FAA TRACON SMA TRACON (SMA)
15:05 40.1339 -76.1592 98° East 350 403 10,100 -1,080 Level FAA TRACON SMA TRACON (SMA)
15:05 40.1269 -76.1133 101° East 328 377 9,400 -1,680 Descending FAA TRACON SMA TRACON (SMA)
15:05 40.1239 -76.0797 97° East 327 376 9,000 -1,560 Descending FAA TRACON SMA TRACON (SMA)
15:06 40.1183 -76.0414 101° East 327 376 8,400 -1,800 Descending FAA TRACON SMA TRACON (SMA)
15:06 40.1136 -75.9969 98° East 323 372 7,800 -1,800 Descending FAA TRACON SMA TRACON (SMA)
15:06 40.1092 -75.9617 99° East 323 372 7,200 -1,440 Descending FAA TRACON SMA TRACON (SMA)
15:07 40.1042 -75.9264 100° East 322 371 6,900 -780 Descending FAA TRACON SMA TRACON (SMA)
15:07 40.1000 -75.8914 99° East 316 364 6,700 -900 Descending FAA TRACON SMA TRACON (SMA)
15:07 40.0950 -75.8514 99° East 297 342 6,300 -1,080 Descending FAA TRACON SMA TRACON (SMA)
15:08 40.0914 -75.8197 98° East 291 335 6,000 -480 Descending FAA TRACON SMA TRACON (SMA)
15:08 40.0881 -75.7875 98° East 289 333 6,000  Level FAA TRACON SMA TRACON (SMA)
15:08 40.0825 -75.7461 100° East 289 333 6,000  Level FAA TRACON SMA TRACON (SMA)
15:09 40.0803 -75.7156 95° East 302 348 6,000  Level FAA TRACON SMA TRACON (SMA)
15:09 40.0794 -75.6842 92° East 279 321 6,000  Level FAA TRACON SMA TRACON (SMA)
15:09 40.0772 -75.6428 94° East 292 336 6,000  Level FAA TRACON SMA TRACON (SMA)
15:10 40.0761 -75.6108 93° East 290 334 6,000  Level FAA TRACON SMA TRACON (SMA)
15:10 40.0742 -75.5717 94° East 288 331 6,000  Level FAA TRACON SMA TRACON (SMA)
15:10 40.0725 -75.5378 94° East 290 334 6,000  Level FAA TRACON SMA TRACON (SMA)
15:11 40.0708 -75.5053 94° East 290 334 6,000  Level FAA TRACON SMA TRACON (SMA)
15:11 40.0694 -75.4733 93° East 289 333 6,000  Level FAA TRACON SMA TRACON (SMA)
15:11 40.0689 -75.4339 91° East 289 333 6,000  Level FAA TRACON SMA TRACON (SMA)
15:12 40.0661 -75.4022 97° East 291 335 6,000 -480 Level FAA TRACON SMA TRACON (SMA)
15:12 40.0608 -75.3683 101° East 280 322 5,700 -1,200 Descending FAA TRACON SMA TRACON (SMA)
15:12 40.0542 -75.3292 103° East 287 330 5,200 -1,380 Descending FAA TRACON SMA TRACON (SMA)
15:13 40.0489 -75.2992 103° East 276 318 4,800 -1,380 Descending FAA TRACON SMA TRACON (SMA)
15:13 40.0436 -75.2686 103° East 274 315 4,300 -1,200 Descending FAA TRACON SMA TRACON (SMA)
15:13 40.0383 -75.2322 101° East 279 321 4,000 -480 Descending FAA TRACON SMA TRACON (SMA)
15:14 40.0322 -75.2025 105° East 278 320 4,000  Level FAA TRACON SMA TRACON (SMA)
15:14 40.0236 -75.1719 110° East 275 316 4,000 -600 Level FAA TRACON SMA TRACON (SMA)
15:14 40.0044 -75.1436 131° Southeast 273 314 3,600 -1,200 Descending FAA TRACON SMA TRACON (SMA)
15:15 39.9875 -75.1269 143° Southeast 243 280 3,200 -1,080 Descending FAA TRACON SMA TRACON (SMA)
15:15 39.9694 -75.1139 151° Southeast 240 276 2,900 -1,080 Descending FAA TRACON SMA TRACON (SMA)
15:15 39.9478 -75.1067 166° South 228 262 2,500 -1,260 Descending FAA TRACON SMA TRACON (SMA)
15:16 39.9303 -75.1053 177° South 228 262 2,100 -660 Descending FAA TRACON SMA TRACON (SMA)
15:16 39.9128 -75.1103 192° South 186 214 2,100 -480 Level FAA TRACON SMA TRACON (SMA)
15:16 39.9011 -75.1228 219° Southwest 178 205 1,800 -1,080 Descending FAA TRACON SMA TRACON (SMA)
15:17 39.8917 -75.1433 239° Southwest 164 189 1,400 -1,080 Descending FAA TRACON SMA TRACON (SMA)
15:17 39.8881 -75.1597 254° West 150 173 1,100 -900 Descending FAA TRACON SMA TRACON (SMA)
15:17 39.8853 -75.1750 257° West 144 166 800 -780 Descending FAA TRACON SMA TRACON (SMA)
15:18 39.8814 -75.1928 254° West 137 158 600 -600 Descending FAA TRACON SMA TRACON (SMA)
15:18 39.8783 -75.2072 255° West 134 154 400 -600 Descending FAA TRACON SMA TRACON (SMA)
15:18 39.8764 -75.2178 257° West 133 153 200 -240 Descending FAA TRACON SMA TRACON (SMA)
15:19 39.8764 -75.2178 123° Southeast 133 153 200  Level FAA TRACON SMA TRACON (SMA)